User: anonymous
Location: Mentone
(34.5413°N, 85.5351°W)
Time: 22:50:39
(UTC-05:00)
Language:

S-56A Canister/Altair - Orbit

View from above orbital plane
View from above orbital plane
View from above satellite
View from above satellite

Ground track
Ground track

The orbit data is extracted from the following two-line orbital elements,

1 00082U 61004B   14104.76800401  .00000038  00000-0  75124-4 0  6831
2 00082 038.8557 266.9722 1177372 001.2559 359.0707 12.25637668530995
Epoch (UTC): 14 April 2014 18:25:55
Eccentricity: 0.1177372
inclination: 38.8557°
perigee height: 632 km
apogee height: 2503 km
right ascension of ascending node: 266.9722°
argument of perigee: 1.2559°
revolutions per day: 12.25637668
mean anomaly at epoch: 359.0707°
orbit number at epoch: 53099

The dashed part of the orbit path shows where the satellite is in the earth's shadow,  

DLR